Other Public Products
Issued by NWS Grand Forks, ND

Home | Current Version | Previous Version | Graphics & Text | Print | Product List | Glossary On
Versions: 1 2 3 4 5 6 7 8 9 10 11 12 13 14 15 16 17 18 19 20 21 22 23 24 25 26 27 28 29 30 31 32 33 34 35 36 37 38 39 40 41 42 43 44 45 46 47 48 49 50
151
FPUS83 KFGF 240510
OPUFGF
PRAIRIE TO PINES WEATHER ROUNDUP
NATIONAL WEATHER SERVICE EASTERN NORTH DAKOTA/GRAND FORKS ND
1100 PM CST FRI FEB 23 2018

 **SATELLITE DATA USED TO AUGMENT SKY COVER AT AUTOMATED STATIONS**
 *****  WEATHER ACROSS EASTERN NORTH DAKOTA  *****

CITY           SKY/WX    TMP DP  RH WIND       PRES   REMARKS
GRAND FORKS    FAIR       4   0  83 S13       30.21F WCI -13
GRND FORKS AFB FAIR       3  -2  79 S7        30.20F WCI  -9
GRND FORKS NWS   N/A      6   4  92 SW7       30.19F WCI  -6
BUXTON           N/A    N/A N/A N/A S9          N/A
DEVILS LAKE    FAIR       2  -2  83 S6        30.13F WCI  -9
FARGO          FAIR       4   1  88 MISG      30.26F
WAHPETON ARPT  FAIR      -8 -15  71 CALM      30.28F
$$

 *****  WEATHER ACROSS CENTRAL AND WESTERN NORTH DAKOTA  *****

CITY           SKY/WX    TMP DP  RH WIND       PRES   REMARKS
JAMESTOWN      FAIR       2  -1  88 SW8       30.17F WCI -12
BISMARCK       FAIR       5   1  83 CALM      30.14F
MINOT          FAIR      13   3  64 S9        30.01F WCI   1
MINOT AFB      FAIR      12   3  68 SW21        N/A  WCI  -7
GARRISON         N/A      4   1  88 S8        30.06F WCI  -9
WILLISTON      FAIR       2  -2  83 SW5       29.98F WCI  -8
DICKINSON      FAIR       2  -6  69 S8        29.97F WCI -12
HETTINGER      FAIR       4  -5  66 S7        30.02F WCI  -8
$$

 *****  OTHER OBSERVATIONS NORTHEAST NORTH DAKOTA  *****

CITY           SKY/WX    TMP DP  RH WIND       PRES   REMARKS
WALHALLA       FAIR      10   7  85 CALM      30.14S
LANGDON        FAIR       1   1 100 SW16      30.09F WCI -18
CAVALIER         N/A      7   3  85 SW8       30.16S WCI  -6
GRAFTON        FAIR       7   1  78 SW10      30.20F WCI  -8
CANDO          FAIR       0  -2  92 MISG      30.12F
FORT TOTTEN      N/A      5   1  84 S7        29.95S WCI  -7
ROLLA          FAIR       3   1  92 S6        30.04F WCI  -8
RUGBY          FAIR       5   1  85 S10       30.08F WCI -10
 ***** THE ABOVE OBSERVATIONS ARE NON NWS ARE NOT QUALITY
        CONTROLLED AND MAY MIS-REPORT RAIN FOR SNOW...
$$

 *****  OTHER OBSERVATIONS SOUTHEAST NORTH DAKOTA *****

CITY           SKY/WX    TMP DP  RH WIND       PRES   REMARKS
COOPERSTOWN    FAIR       5   1  85 S12       30.18F WCI -11
VALLEY CITY    FAIR       1   1 100 S8        30.21F WCI -12
OAKES            N/A     -8 -11  84 S7        30.22F WCI -22
GWINNER          N/A     -4  -8  84 S12       30.23F WCI -22
SHEYENNE NWR     N/A     -3  -7  84 SW2       29.95S
BUFFALO          N/A      5   1  85 E8          N/A  WCI  -9
WYNDMERE       NOT AVBL
 ***** THE ABOVE OBSERVATIONS ARE NON NWS ARE NOT QUALITY
       CONTROLLED AND MAY MIS-REPORT RAIN FOR SNOW...
$$

  *****  WEATHER ACROSS NORTHERN MINNESOTA  *****

CITY           SKY/WX    TMP DP  RH WIND       PRES   REMARKS
FLAG ISLAND    FAIR       5   1  85 S5        30.15S WCI  -4
WARROAD        FAIR       5   1  85 SW8       30.16F WCI  -8
ROSEAU         FAIR       1  -2  85 S6        30.16F WCI -10
HALLOCK        FAIR       3   0  85 S12       30.17F WCI -13
THF RVR FALLS  FAIR       3   0  87 SW13      30.21S WCI -14
HALSTAD        NOT AVBL
FOSSTON        FAIR      -6  -8  92 S6        30.23S WCI -18
BAUDETTE       FAIR       4   1  88 S6        30.16S WCI  -7
WASKISH        FAIR       7   3  85 SW9       30.19S WCI  -7
CROOKSTON      FAIR       1  -2  85 S8        30.24F WCI -12
$$
  *****  WEATHER ACROSS CENTRAL AND WEST MINNESOTA  *****

CITY           SKY/WX    TMP DP  RH WIND       PRES   REMARKS
BEMIDJI        FAIR       5   1  85 SW3       30.20F
PARK RAPIDS    FAIR      -1  -5  82 W8        30.21F WCI -15
WADENA         FAIR       1   0  92 W5        30.24F WCI  -8
DETROIT LAKES  FAIR       5   3  92 S5        30.24F WCI  -4
MOORHEAD       FAIR       0  -6  78 S5        30.27F WCI -10
FERGUS FALLS   FAIR     N/A N/A N/A SE5       30.28F
ELBOW LAKE     FAIR      -6  -9  85 CALM      30.27F
MORRIS MN      FOG       -8 -11  84 CALM      30.27F VSB<1/4
STAPLES        FAIR       0  -4  85 W5        30.24F WCI -10
WHEATON        FAIR      -8 -13  77 CALM      30.30F
$$
  *****  WEATHER ELSEWHERE ACROSS MINNESOTA  *****

CITY           SKY/WX    TMP DP  RH WIND       PRES   REMARKS
DULUTH         FAIR      20  15  81 W9        30.18R WCI   9
INTRNTL FALLS  FAIR       9   4  80 W7        30.17S WCI  -2
ELY            FAIR      16   7  67 SW5       30.16S WCI   9
CLOQUET        FAIR      21  16  79 W6        30.20R WCI  14
BRAINERD       FAIR       9   2  73 W3        30.25S
HIBBING        FAIR      12   7  80 SW3       30.18S
ALEXANDRIA     FAIR       3   0  87 W3        30.25F
SAINT CLOUD    FAIR      10   7  87 NW5       30.27F WCI   2
MINNEAPOLIS    FAIR      17  14  88 W5        30.29F WCI  10
$$

  *****  WEATHER ACROSS SOUTH DAKOTA  *****

CITY           SKY/WX    TMP DP  RH WIND       PRES   REMARKS
SIOUX FALLS    FOG       15  14  95 NE5       30.25S VSB 1/4 WCI   8
BROOKINGS      FOG       11   9  92 N3        30.22F VSB 1/4
WATERTOWN      CLOUDY     1  -1  91 CALM      30.22F FOG
HURON          FOG       -5  -7  91 NE6       30.24F VSB 1/4 WCI -18
SISSETON         N/A      6   3  87 SW6       30.25F WCI  -4
ABERDEEN       FOG      -10 -13  86 CALM      30.24F VSB 1/2
MITCHELL       FAIR       2  -2  83 CALM      30.26F
PIERRE         FAIR      -3  -4  95 E3        30.17F
MOBRIDGE       FAIR      -2  -7  79 SE9       30.13F WCI -18
RAPID CITY     FAIR       9   1  70 SE10      29.99F WCI  -5
$$

  *****  SOME WEATHER IN NEARBY STATES *****

CITY           SKY/WX    TMP DP  RH WIND       PRES   REMARKS
GLASGOW MT     FAIR       0  -6  76 SE13      29.88F WCI -18
GREAT FALLS MT FAIR      15   4  61 SW21      29.79F WCI  -2
CHEYENNE WY    LGT SNOW  20  19  96 S6        29.87F FOG     WCI  12
SCOTTSBLUFF NE CLOUDY    21  17  84 E9        29.98F WCI  11
OMAHA NE       CLOUDY    22  19  89 NE9       30.28F WCI  12
DES MOINES IA  CLOUDY    27  22  81 N10       30.29F WCI  17
DAVENPORT IA   FAIR      31  27  85 NW7       30.30F WCI  24
CHICAGO IL     CLOUDY    34  28  79 CALM      30.26S
EAU CLAIRE WI  FAIR      15  14  95 SW5       30.27F FOG     WCI   8
LA CROSSE WI   NOT AVBL
$$

  *****  SOME NATIONAL WEATHER *****

CITY           SKY/WX    TMP DP  RH WIND       PRES   REMARKS
LA GUARDIA NY  MOCLDY    44  40  85 W12       30.16F
RALEIGH NC     FAIR      59  57  93 S3        30.28F
ATLANTA GA     FAIR      66  59  78 SE6       30.26S
NEW ORLEANS LA FAIR      71  71 100 SE7       30.15F
OKLAHOMA CITY  DRIZZLE   38  38 100 N6        30.03F FOG
ALBUQUERQUE NM MOCLDY    38  18  44 N16G22    29.93R
SALT LAKE CITY FAIR      17  14  88 SW5       30.17S WCI  10
LOS ANGELES CA FAIR      51  20  29 N10       30.25R
BOISE ID       CLOUDY    26  13  57 E5        30.24F WCI  20
SEATTLE WA     CLOUDY    35  32  88 S12       30.13F
$$

*** WEATHER ACROSS MANITOBA...SASKATCHEWAN AND ONTARIO ***
                ***ONTARIO***

CITY           SKY/WX    TMP DP  RH WIND       PRES   REMARKS
GERALDTON      PTCLDY    10   7  85 SW3       30.06S
THUNDER BAY    PTCLDY    19  18  93 SW6       30.15S WCI  11
SIOUX LOOKOUT  CLEAR     -4  -9  77 S2        30.08R
TORONTO        CLOUDY    41  37  87 W23G29    30.13R
BIG TROUT LK   CLOUDY    -6 -13  71 S5        30.00F WCI -17
PICKLE LAKE    NOT AVBL
DRYDEN         CLEAR     12   5  73 SW8       30.08S WCI   1
KENORA         PTCLDY     5   0  78 SW5       30.11S WCI  -4
$$
                *** MANITOBA***

CITY           SKY/WX    TMP DP  RH WIND       PRES   REMARKS
BRANDON        CLEAR      3  -2  78 SW13      30.02F WCI -14
DAUPHIN        CLEAR     12   5  73 SW14      29.95F WCI  -3
ISLAND LAKE    CLEAR     12   0  57 SW10      29.93F WCI  -1
PILOT MOUND      N/A      1   0  92 S13         N/A  WCI -16
THE PAS        CLOUDY    14   5  67 S15G22    29.73F WCI  -1
THOMPSON       CLOUDY    16   5  62 S12G20    29.68F WCI   3
WINNIPEG       CLEAR      7   1  78 S10       30.12F WCI  -8
LYNN LAKE      CLOUDY    19  12  73 SW13G20   29.50F WCI   7
CHURCHILL      FLURRIES   0  -9  65 S16G22    29.64F WCI -21
GILLAM         CLEAR      9   0  66 S16G23    29.74F WCI  -9
$$
                ***SASKATCHEWAN***

CITY           SKY/WX    TMP DP  RH WIND       PRES   REMARKS
ESTEVAN        CLEAR      3  -2  78 SW8       29.94F WCI -10
KINDERSLEY     MOCLDY     1  -2  85 S8        29.60F WCI -12
LLOYDMINSTER   MOCLDY    12   7  79 SW13      29.51F WCI  -3
PRINCE ALBERT  MOCLDY    12   3  67 S13       29.64F WCI  -3
REGINA         CLEAR      3  -2  78 S17       29.80F WCI -17
YORKTON        CLEAR      9   3  78 S15G25    29.82F W



USA.gov is the U.S. government's official web portal to all federal, state and local government web resources and services.